| time (UTC) | temp F | wind direction | speed knots | gust knots | rain 1hr in | rain 24hr in | rain mn in | humidity % | barometer mb |
| 20260507180550 | 59 | 90 | 5.2 | 8.7 | 0.00 | 0.00 | 0.00 | 56 | 1006.9 |
| 20260507175558 | 61 | 340 | 5.2 | 9.6 | 0.00 | 0.00 | 0.00 | 53 | 1006.2 |
| 20260507174606 | 64 | 36 | 7.0 | 13.0 | 0.00 | 0.00 | 0.00 | 51 | 1005.5 |
| 20260507173613 | 64 | 315 | 0.0 | 3.5 | 0.00 | 0.00 | 0.00 | 60 | 1004.2 |
| 20260507172516 | 65 | 315 | 0.0 | 1.7 | 0.00 | 0.00 | 0.00 | 57 | 1003.7 |
| 20260507171524 | 66 | 229 | 0.9 | 2.6 | 0.00 | 0.00 | 0.00 | 54 | 1003.5 |
| 20260507170531 | 67 | 240 | 0.9 | 3.5 | 0.00 | 0.00 | 0.00 | 53 | 1003.3 |
| 20260507165539 | 67 | 220 | 2.6 | 6.1 | 0.00 | 0.00 | 0.00 | 52 | 1003.2 |
| 20260507164547 | 68 | 190 | 3.5 | 5.2 | 0.00 | 0.00 | 0.00 | 52 | 1003.2 |
| 20260507163554 | 68 | 185 | 4.3 | 7.8 | 0.00 | 0.00 | 0.00 | 51 | 1003.1 |
| 20260507162602 | 68 | 212 | 3.5 | 10.4 | 0.00 | 0.00 | 0.00 | 51 | 1003.1 |
| 20260507161610 | 68 | 209 | 2.6 | 5.2 | 0.00 | 0.00 | 0.00 | 51 | 1003.0 |
| 20260507160619 | 70 | 270 | 4.3 | 6.1 | 0.00 | 0.00 | 0.00 | 50 | 1002.9 |
| 20260507155521 | 71 | 209 | 5.2 | 7.8 | 0.00 | 0.00 | 0.00 | 47 | 1002.8 |
| 20260507154529 | 72 | 173 | 5.2 | 7.8 | 0.00 | 0.00 | 0.00 | 48 | 1002.8 |
| 20260507153537 | 73 | 253 | 4.3 | 7.8 | 0.00 | 0.00 | 0.00 | 44 | 1002.8 |
| 20260507152544 | 73 | 188 | 5.2 | 7.8 | 0.00 | 0.00 | 0.00 | 45 | 1002.7 |
| 20260507151552 | 73 | 219 | 6.1 | 10.4 | 0.00 | 0.00 | 0.00 | 45 | 1002.9 |
| 20260507150600 | 73 | 200 | 4.3 | 7.8 | 0.00 | 0.00 | 0.00 | 46 | 1002.8 |
| 20260507145608 | 73 | 221 | 6.1 | 10.4 | 0.00 | 0.00 | 0.00 | 45 | 1002.9 |
| 20260507144616 | 73 | 225 | 4.3 | 7.0 | 0.00 | 0.00 | 0.00 | 45 | 1002.9 |
| 20260507143518 | 72 | 241 | 6.1 | 12.2 | 0.00 | 0.00 | 0.00 | 46 | 1003.0 |
| 20260507142526 | 72 | 165 | 6.1 | 10.4 | 0.00 | 0.00 | 0.00 | 51 | 1003.1 |
| 20260507141533 | 71 | 223 | 6.1 | 10.4 | 0.00 | 0.00 | 0.00 | 52 | 1003.2 |
| 20260507140541 | 70 | 315 | 2.6 | 3.5 | 0.00 | 0.00 | 0.00 | 54 | 1003.1 |
| 20260507135550 | 70 | 173 | 5.2 | 10.4 | 0.00 | 0.00 | 0.00 | 52 | 1003.2 |
| 20260507134557 | 70 | 227 | 3.5 | 5.2 | 0.00 | 0.00 | 0.00 | 52 | 1003.3 |
| 20260507133605 | 70 | 176 | 3.5 | 5.2 | 0.00 | 0.00 | 0.00 | 52 | 1003.2 |
| 20260507132613 | 70 | 238 | 4.3 | 8.7 | 0.00 | 0.00 | 0.00 | 51 | 1003.2 |
| 20260507131515 | 71 | 161 | 5.2 | 8.7 | 0.00 | 0.00 | 0.00 | 51 | 1003.2 |
| 20260507130523 | 71 | 228 | 5.2 | 7.8 | 0.00 | 0.00 | 0.00 | 50 | 1003.4 |
| 20260507125531 | 71 | 191 | 2.6 | 5.2 | 0.00 | 0.00 | 0.00 | 50 | 1003.6 |
| 20260507124538 | 72 | 189 | 6.1 | 8.7 | 0.00 | 0.00 | 0.00 | 45 | 1003.7 |
| 20260507123547 | 72 | 178 | 4.3 | 7.0 | 0.00 | 0.00 | 0.00 | 45 | 1003.7 |
| 20260507122554 | 73 | 193 | 4.3 | 7.0 | 0.00 | 0.00 | 0.00 | 47 | 1003.7 |
| 20260507121602 | 72 | 224 | 3.5 | 7.8 | 0.00 | 0.00 | 0.00 | 45 | 1003.8 |
| 20260507120610 | 73 | 315 | 0.9 | 1.7 | 0.00 | 0.00 | 0.00 | 40 | 1003.9 |
| 20260507115618 | 75 | 186 | 3.5 | 5.2 | 0.00 | 0.00 | 0.00 | 38 | 1003.8 |
| 20260507114520 | 75 | 240 | 4.3 | 7.8 | 0.00 | 0.00 | 0.00 | 35 | 1003.9 |
| 20260507113528 | 74 | 292 | 1.7 | 4.3 | 0.00 | 0.00 | 0.00 | 38 | 1004.0 |
| 20260507112535 | 73 | 257 | 4.3 | 7.8 | 0.00 | 0.00 | 0.00 | 41 | 1004.1 |
| 20260507111543 | 73 | 194 | 2.6 | 5.2 | 0.00 | 0.00 | 0.00 | 43 | 1004.2 |
| 20260507110552 | 73 | 237 | 2.6 | 6.1 | 0.00 | 0.00 | 0.00 | 43 | 1004.2 |
| 20260507105559 | 73 | 257 | 1.7 | 5.2 | 0.00 | 0.00 | 0.00 | 43 | 1004.4 |
| 20260507104607 | 71 | 199 | 1.7 | 4.3 | 0.00 | 0.00 | 0.00 | 50 | 1004.4 |
| 20260507103615 | 70 | 248 | 2.6 | 5.2 | 0.00 | 0.00 | 0.00 | 50 | 1004.5 |
| 20260507102517 | 70 | 188 | 5.2 | 7.8 | 0.00 | 0.00 | 0.00 | 52 | 1004.6 |
| 20260507101525 | 69 | 232 | 4.3 | 7.0 | 0.00 | 0.00 | 0.00 | 52 | 1004.7 |
| 20260507100533 | 70 | 45 | 2.6 | 4.3 | 0.00 | 0.00 | 0.00 | 51 | 1004.9 |
| 20260507095540 | 71 | 230 | 1.7 | 5.2 | 0.00 | 0.00 | 0.00 | 50 | 1005.0 |
| 20260507094547 | 71 | 243 | 2.6 | 4.3 | 0.00 | 0.00 | 0.00 | 51 | 1005.0 |
| 20260507093555 | 69 | 217 | 1.7 | 5.2 | 0.00 | 0.00 | 0.00 | 52 | 1005.1 |
| 20260507092603 | 67 | 118 | 1.7 | 4.3 | 0.00 | 0.00 | 0.00 | 52 | 1005.1 |
| 20260507091611 | 67 | 225 | 2.6 | 7.8 | 0.00 | 0.00 | 0.00 | 53 | 1005.3 |
| 20260507090619 | 66 | 256 | 0.9 | 2.6 | 0.00 | 0.00 | 0.00 | 54 | 1005.2 |
| 20260507085521 | 66 | 266 | 1.7 | 3.5 | 0.00 | 0.00 | 0.00 | 55 | 1005.3 |
| 20260507084529 | 65 | 204 | 0.9 | 3.5 | 0.00 | 0.00 | 0.00 | 58 | 1005.5 |
| 20260507083537 | 64 | 281 | 0.0 | 2.6 | 0.00 | 0.00 | 0.00 | 60 | 1005.5 |
| 20260507082545 | 63 | 182 | 1.7 | 3.5 | 0.00 | 0.00 | 0.00 | 60 | 1005.4 |
| 20260507081553 | 63 | 218 | 1.7 | 3.5 | 0.00 | 0.00 | 0.00 | 62 | 1005.3 |
| 20260507080601 | 62 | 202 | 1.7 | 2.6 | 0.00 | 0.00 | 0.00 | 65 | 1005.1 |
| 20260507075609 | 61 | 191 | 0.9 | 2.6 | 0.00 | 0.00 | 0.00 | 68 | 1005.2 |
| 20260507074617 | 61 | 202 | 0.0 | 2.6 | 0.00 | 0.00 | 0.00 | 69 | 1005.3 |
| 20260507073519 | 61 | 266 | 0.9 | 2.6 | 0.00 | 0.00 | 0.00 | 66 | 1005.2 |
| 20260507072527 | 61 | 225 | 0.9 | 2.6 | 0.00 | 0.00 | 0.00 | 66 | 1005.1 |
| 20260507071535 | 60 | 202 | 2.6 | 7.0 | 0.00 | 0.00 | 0.00 | 67 | 1005.0 |
| 20260507070543 | 59 | 207 | 0.9 | 3.5 | 0.00 | 0.00 | 0.00 | 73 | 1004.7 |
| 20260507065551 | 59 | 225 | 0.0 | 0.9 | 0.00 | 0.00 | 0.00 | 73 | 1004.8 |
| 20260507064559 | 59 | 270 | 0.0 | 0.9 | 0.00 | 0.00 | 0.00 | 75 | 1004.7 |
| 20260507063607 | 58 | 211 | 0.0 | 0.9 | 0.00 | 0.00 | 0.00 | 77 | 1004.7 |
| 20260507062615 | 57 | 227 | 0.9 | 2.6 | 0.00 | 0.00 | 0.00 | 79 | 1004.6 |
| 20260507061517 | 56 | 200 | 0.9 | 2.6 | 0.00 | 0.00 | 0.00 | 81 | 1004.7 |
| 20260507060525 | 56 | 0.0 | 0.0 | 0.00 | 0.00 | 0.00 | 81 | 1004.5 | |
| 20260507054541 | 55 | 0.0 | 0.0 | 0.00 | 0.00 | 0.00 | 81 | 1004.5 | |
| 20260507053549 | 55 | 180 | 0.0 | 0.9 | 0.00 | 0.00 | 0.00 | 81 | 1004.4 |
| 20260507052557 | 55 | 0.0 | 0.9 | 0.00 | 0.00 | 0.00 | 80 | 1004.3 | |
| 20260507051604 | 55 | 270 | 0.0 | 0.0 | 0.00 | 0.00 | 0.00 | 80 | 1004.2 |
| 20260507050612 | 54 | 225 | 1.7 | 2.6 | 0.00 | 0.00 | 0.00 | 80 | 1004.0 |
| 20260507045620 | 54 | 239 | 0.0 | 0.9 | 0.00 | 0.00 | 0.00 | 80 | 1004.1 |
| 20260507044522 | 54 | 241 | 0.9 | 1.7 | 0.00 | 0.00 | 0.00 | 80 | 1003.9 |
| 20260507043530 | 54 | 225 | 1.7 | 2.6 | 0.00 | 0.00 | 0.00 | 80 | 1003.8 |
| 20260507042538 | 54 | 245 | 1.7 | 4.3 | 0.00 | 0.00 | 0.00 | 80 | 1003.7 |
| 20260507041546 | 54 | 235 | 1.7 | 3.5 | 0.00 | 0.00 | 0.00 | 83 | 1003.6 |
| 20260507040554 | 54 | 0.0 | 0.0 | 0.00 | 0.00 | 0.00 | 83 | 1003.6 | |
| 20260507035602 | 53 | 199 | 1.7 | 2.6 | 0.00 | 0.00 | 0.00 | 82 | 1003.6 |
| 20260507034610 | 53 | 250 | 0.9 | 1.7 | 0.00 | 0.00 | 0.00 | 82 | 1003.7 |
| 20260507033618 | 53 | 275 | 0.9 | 1.7 | 0.00 | 0.00 | 0.00 | 82 | 1003.7 |
| 20260507032520 | 54 | 270 | 0.0 | 0.9 | 0.00 | 0.00 | 0.00 | 81 | 1003.6 |
| 20260507031528 | 54 | 229 | 0.9 | 1.7 | 0.00 | 0.00 | 0.00 | 79 | 1003.5 |
| 20260507030536 | 54 | 225 | 1.7 | 2.6 | 0.00 | 0.00 | 0.00 | 77 | 1003.5 |
| 20260507025544 | 55 | 212 | 0.9 | 2.6 | 0.00 | 0.00 | 0.00 | 76 | 1003.5 |
| 20260507024552 | 55 | 180 | 0.0 | 0.9 | 0.00 | 0.00 | 0.00 | 75 | 1003.5 |
| 20260507023600 | 55 | 203 | 0.9 | 1.7 | 0.00 | 0.00 | 0.00 | 74 | 1003.6 |
| 20260507022608 | 56 | 180 | 0.0 | 0.9 | 0.00 | 0.00 | 0.00 | 73 | 1003.5 |
| 20260507021616 | 56 | 225 | 0.0 | 0.9 | 0.00 | 0.00 | 0.00 | 72 | 1003.5 |
| 20260507020518 | 58 | 180 | 0.0 | 0.9 | 0.00 | 0.00 | 0.00 | 71 | 1003.5 |
| 20260507015526 | 58 | 0.0 | 0.0 | 0.00 | 0.00 | 0.00 | 70 | 1003.4 | |
| 20260507014534 | 59 | 0.0 | 0.0 | 0.00 | 0.00 | 0.00 | 66 | 1003.4 | |
| 20260507013541 | 60 | 218 | 0.9 | 4.3 | 0.00 | 0.00 | 0.00 | 64 | 1003.2 |
| 20260507012549 | 60 | 176 | 4.3 | 7.8 | 0.00 | 0.00 | 0.00 | 64 | 1003.1 |
| 20260507011558 | 60 | 185 | 4.3 | 6.1 | 0.00 | 0.00 | 0.00 | 64 | 1003.1 |
| 20260507010606 | 61 | 186 | 4.3 | 7.8 | 0.00 | 0.00 | 0.00 | 64 | 1003.1 |
| 20260507005613 | 61 | 180 | 3.5 | 6.1 | 0.00 | 0.00 | 0.00 | 63 | 1003.2 |
| 20260507004516 | 61 | 180 | 4.3 | 7.0 | 0.00 | 0.00 | 0.00 | 63 | 1003.2 |
| 20260507003524 | 61 | 194 | 3.5 | 8.7 | 0.00 | 0.00 | 0.00 | 63 | 1003.2 |
| 20260507002532 | 61 | 180 | 5.2 | 8.7 | 0.00 | 0.00 | 0.00 | 63 | 1003.2 |
| 20260507001540 | 61 | 175 | 4.3 | 7.8 | 0.00 | 0.00 | 0.00 | 63 | 1003.2 |
| 20260507000548 | 60 | 180 | 3.5 | 5.2 | 0.00 | 0.00 | 0.00 | 65 | 1003.4 |
| 20260506235556 | 61 | 180 | 4.3 | 7.8 | 0.00 | 0.00 | 0.00 | 64 | 1003.4 |
| 20260506234603 | 60 | 226 | 3.5 | 5.2 | 0.00 | 0.00 | 0.00 | 66 | 1003.4 |
| 20260506233611 | 59 | 183 | 5.2 | 7.8 | 0.00 | 0.00 | 0.00 | 69 | 1003.5 |
| 20260506232619 | 58 | 270 | 2.6 | 5.2 | 0.00 | 0.00 | 0.00 | 71 | 1003.4 |
| 20260506231521 | 57 | 245 | 0.9 | 2.6 | 0.00 | 0.00 | 0.00 | 73 | 1003.4 |
| 20260506230528 | 57 | 256 | 0.0 | 1.7 | 0.00 | 0.00 | 0.00 | 75 | 1003.4 |
| 20260506225536 | 58 | 247 | 0.0 | 0.0 | 0.00 | 0.00 | 0.00 | 74 | 1003.3 |
| 20260506224544 | 58 | 246 | 0.9 | 2.6 | 0.00 | 0.00 | 0.00 | 74 | 1003.2 |
| 20260506223552 | 59 | 226 | 0.9 | 2.6 | 0.00 | 0.00 | 0.00 | 74 | 1003.1 |
| 20260506222600 | 58 | 190 | 2.6 | 4.3 | 0.00 | 0.00 | 0.00 | 76 | 1003.0 |
| 20260506221608 | 58 | 236 | 0.9 | 2.6 | 0.00 | 0.00 | 0.00 | 75 | 1003.2 |
| 20260506220616 | 59 | 225 | 0.0 | 0.9 | 0.00 | 0.00 | 0.00 | 74 | 1003.1 |
| 20260506215518 | 59 | 220 | 0.9 | 2.6 | 0.00 | 0.00 | 0.00 | 74 | 1003.0 |
| 20260506214526 | 59 | 199 | 0.9 | 2.6 | 0.00 | 0.00 | 0.00 | 74 | 1003.1 |
| 20260506213534 | 60 | 0.0 | 0.0 | 0.00 | 0.00 | 0.00 | 73 | 1003.1 | |
| 20260506212542 | 60 | 214 | 0.0 | 0.9 | 0.00 | 0.00 | 0.00 | 72 | 1003.1 |
| 20260506211550 | 60 | 259 | 0.0 | 1.7 | 0.00 | 0.00 | 0.00 | 72 | 1003.0 |
| 20260506210557 | 60 | 194 | 0.9 | 1.7 | 0.00 | 0.00 | 0.00 | 72 | 1003.0 |
| 20260506205606 | 60 | 206 | 1.7 | 2.6 | 0.00 | 0.00 | 0.00 | 72 | 1002.8 |
| 20260506204613 | 60 | 190 | 1.7 | 4.3 | 0.00 | 0.00 | 0.00 | 72 | 1002.7 |
| 20260506203515 | 61 | 270 | 0.0 | 0.9 | 0.00 | 0.00 | 0.00 | 71 | 1002.8 |
| 20260506202523 | 61 | 270 | 0.0 | 1.7 | 0.00 | 0.00 | 0.00 | 71 | 1002.7 |
| 20260506201531 | 60 | 180 | 1.7 | 2.6 | 0.00 | 0.00 | 0.00 | 72 | 1002.7 |
| 20260506200538 | 59 | 270 | 0.0 | 0.9 | 0.00 | 0.00 | 0.00 | 73 | 1002.8 |
| 20260506195547 | 59 | 180 | 0.0 | 1.7 | 0.00 | 0.00 | 0.00 | 72 | 1002.6 |
| 20260506194554 | 59 | 251 | 0.0 | 1.7 | 0.00 | 0.00 | 0.00 | 72 | 1002.7 |
| 20260506193602 | 59 | 251 | 0.0 | 3.5 | 0.00 | 0.00 | 0.00 | 71 | 1002.6 |
| 20260506192610 | 59 | 324 | 0.0 | 0.9 | 0.00 | 0.00 | 0.00 | 70 | 1002.5 |
| 20260506191618 | 60 | 0.0 | 0.0 | 0.00 | 0.00 | 0.00 | 68 | 1002.3 | |
| 20260506190521 | 61 | 4 | 0.9 | 1.7 | 0.00 | 0.00 | 0.00 | 66 | 1002.0 |
| 20260506185529 | 61 | 0.0 | 0.0 | 0.00 | 0.00 | 0.00 | 63 | 1001.8 | |
| 20260506184537 | 63 | 242 | 0.0 | 0.9 | 0.00 | 0.00 | 0.00 | 61 | 1001.8 |
| 20260506183544 | 63 | 213 | 1.7 | 4.3 | 0.00 | 0.00 | 0.00 | 58 | 1001.8 |
| 20260506182552 | 64 | 198 | 3.5 | 7.8 | 0.00 | 0.00 | 0.00 | 57 | 1001.7 |
| 20260506181600 | 64 | 197 | 2.6 | 5.2 | 0.00 | 0.00 | 0.00 | 57 | 1001.7 |